[[[{"header":{"parameterUnit":"kt","parameterCategory":2,"dx":1,"dy":1,"la1":30.253999710083008,"la2":30.299108505249023,"lo1":-89.0895004272461,"lo2":-89.04439544677734,"nx":28,"ny":28,"refTime":"2022-10-28T21:00:00:Z","depth":0,"parameterNumber":1,"parameterNumberName":"U-component_of_WINDS"},"data":[-6.6165,-6.6555,-6.6866,-6.7457,-6.7841,-6.8303,-6.857,-6.895,-6.9337,-6.9932,-7.0334,-7.0701,-7.1223,-7.1788,-7.2247,-7.2405,-7.2576,-7.2476,-7.2679,-7.2822,-7.2863,-7.2903,-7.2826,-7.2509,-7.2509,-7.2484,-7.2484,-7.2483,-6.6221,-6.6599,-6.7005,-6.7613,-6.7966,-6.8246,-6.8758,-6.9037,-6.9448,-6.993,-7.0346,-7.0903,-7.1389,-7.1962,-7.2487,-7.2686,-7.2856,-7.2805,-7.2796,-7.2874,-7.3039,-7.2953,-7.2658,-7.2658,-7.2658,-7.2658,-7.2658,-7.2659,-6.6409,-6.6631,-6.7183,-6.7632,-6.8027,-6.8435,-6.8708,-6.9153,-6.9564,-7.0144,-7.0456,-7.0934,-7.1488,-7.229,-7.2643,-7.3031,-7.3149,-7.32,-7.3214,-7.3217,-7.3172,-7.315,-7.3138,-7.3141,-7.3143,-7.3144,-7.3146,0,-6.6644,-6.6892,-6.7309,-6.7816,-6.8164,-6.8595,-6.9046,-6.9225,-6.9882,-7.0197,-7.0682,-7.1018,-7.1687,-7.2187,-7.276,-7.3127,-7.3467,-7.3542,-7.3578,-7.3428,-7.3214,-7.3327,-7.3575,-7.3541,-7.3546,-7.355,-7.3552,-7.3554,-6.6853,-6.708,-6.7821,-6.807,-6.8398,-6.8797,-6.9103,-6.9668,-6.9968,-7.0615,-7.0793,-7.1301,-7.1738,-7.2475,-7.3015,-7.3522,-7.3694,-7.3642,-7.3774,-7.3615,-7.3692,-7.367,-7.3695,-7.3605,-7.3598,-7.3593,-7.3589,0,-6.6939,-6.7466,-6.7926,-6.8647,-6.8835,-6.9047,-6.9669,-6.9925,-7.034,-7.0751,-7.0881,-7.1536,-7.2011,-7.2566,-7.3228,-7.3503,-7.3868,-7.4025,-7.3675,-7.3735,-7.3742,-7.3732,-7.3685,-7.3707,-7.4045,-7.4041,-7.4038,0,-6.7325,-6.7607,-6.8378,-6.8618,-6.8951,-6.9515,-6.983,-7.0221,-7.0712,-7.1042,-7.1516,-7.1816,-7.2483,-7.2866,-7.3276,-7.3675,-7.3803,-7.4037,-7.4142,-7.3994,-7.3963,-7.4169,-7.4182,-7.4378,-7.4378,-7.4378,-7.4378,0,-6.7402,-6.8155,-6.8547,-6.8806,-6.9612,-6.9785,-7.0131,-7.069,-7.099,-7.1471,-7.1673,-7.2195,-7.2481,-7.288,-7.3399,-7.3465,-7.3903,-7.4105,-7.4144,-7.413,-7.4214,-7.4201,-7.4018,-7.4377,-7.4377,-7.4377,-7.4377,0,-6.78,-6.8264,-6.8758,-6.944,-6.9617,-6.9881,-7.0428,-7.0784,-7.1341,-7.1615,-7.2002,-7.2388,-7.2787,-7.2943,-7.3503,-7.3441,-7.3697,-7.3963,-7.3976,-7.4047,-7.4206,-7.4024,-7.3795,-7.3791,-7.4105,-7.4104,-7.4102,0,-6.7739,-6.8384,-6.8875,-6.9337,-6.9712,-7.0217,-7.0524,-7.1004,-7.1396,-7.1778,-7.2218,-7.2653,-7.2889,-7.3104,-7.3307,-7.3781,-7.386,-7.3787,-7.4337,-7.435,-7.4164,-7.3961,-7.3785,-7.3782,-7.4081,-7.4083,-7.4085,0,-6.7762,-6.8742,-6.879,-6.911,-6.9836,-7.0159,-7.051,-7.1065,-7.1289,-7.1786,-7.2098,-7.273,-7.2932,-7.3285,-7.3662,-7.3843,-7.3823,-7.4042,-7.4065,-7.3979,-7.4121,-7.395,-7.3947,-7.4036,-7.404,-7.4043,-7.4068,0,-6.823,-6.8629,-6.8785,-6.9479,-6.9816,-7.0142,-7.0733,-7.1011,-7.1333,-7.1743,-7.2218,-7.2775,-7.3351,-7.3502,-7.3826,-7.4065,-7.4115,-7.433,-7.4529,-7.4389,-7.4413,-7.4423,-7.4442,-7.4452,-7.446,-7.4466,0,0,-6.804,-6.8625,-6.9162,-6.9525,-6.9843,-7.0371,-7.0666,-7.1041,-7.1786,-7.1996,-7.2109,-7.3076,-7.3527,-7.4044,-7.4047,-7.4284,-7.4382,-7.4412,-7.4452,-7.4447,-7.4445,-7.4459,-7.4459,-7.448,-7.4483,-7.4486,-7.4489,0,-6.8335,-6.8768,-6.9053,-6.9462,-7.0088,-7.0511,-7.0576,-7.1296,-7.1575,-7.2047,-7.2486,-7.2845,-7.361,-7.4027,-7.4338,-7.4362,-7.4678,-7.4494,-7.4302,-7.451,-7.4494,-7.4484,-7.4491,-7.4486,-7.4508,-7.4507,-7.4506,0,-6.8461,-6.8985,-6.9187,-6.9938,-7.0357,-7.0738,-7.1086,-7.1477,-7.1767,-7.2343,-7.2805,-7.3196,-7.3809,-7.4222,-7.4431,-7.4544,-7.491,-7.4907,-7.4873,-7.4911,-7.5143,-7.5123,-7.5106,-7.5326,-7.5327,-7.5327,0,0,-6.8635,-6.9012,-6.9761,-7.0047,-7.0278,-7.0915,-7.1181,-7.1534,-7.2068,-7.228,-7.2792,-7.3302,-7.3755,-7.4039,-7.4497,-7.4866,-7.5041,-7.4982,-7.4944,-7.491,-7.4926,-7.5148,-7.513,-7.5328,-7.5328,-7.5328,0,0,-6.8725,-6.9599,-6.9831,-7.0238,-7.0723,-7.1489,-7.1643,-7.195,-7.242,-7.2451,-7.3078,-7.3242,-7.3642,-7.4014,-7.3958,-7.4579,-7.4763,-7.4789,-7.4321,-7.4282,-7.4245,-7.4148,-7.4403,0,0,0,0,0,-6.9332,-6.949,-6.969,-6.9847,-7.0809,-7.1373,-7.1501,-7.2017,-7.2131,-7.2241,-7.2718,-7.3042,-7.4111,-7.4077,-7.4228,-7.4286,-7.5344,-7.5341,-7.5338,-7.4826,-7.4777,-7.4736,0,0,0,0,0,0,-6.9399,-6.9588,-6.9689,-7.0447,-7.067,-7.1373,-7.1681,-7.1827,-7.2133,-7.2186,-7.2939,-7.3066,-7.3523,-7.4036,-7.4164,-7.4208,-7.4362,-7.5343,-7.534,-7.5338,-7.4809,-7.477,-7.4736,0,0,0,0,0,-6.9454,-6.9608,-7.1013,-7.0451,-7.0643,-7.1365,-7.168,-7.1804,-7.2051,-7.2794,-7.2931,-7.2412,-7.3509,-7.3655,-7.4115,-7.4136,-7.4277,-7.4322,-7.5341,-7.5339,-7.5338,-7.479,0,0,0,0,0,0,-6.9495,-6.9729,-7.1064,-7.1142,-7.0431,-7.1337,-7.1496,-7.1781,-7.2652,-7.2787,-7.2297,-7.2329,-7.3503,-7.3617,-7.3725,-7.4081,-7.4207,-7.4254,-7.4283,-7.534,-7.5338,-7.5337,0,0,0,0,0,0,-6.9651,-6.9791,-7.1104,-7.105,-7.1128,-7.1307,-7.1449,-7.192,-7.2655,-7.2108,-7.2162,-7.2301,-7.3344,-7.359,-7.3676,-7.4391,-7.4154,-7.4198,-7.4229,-7.4249,-7.5338,-7.5337,0,0,0,0,0,0,-6.9719,-6.9841,-7.1034,-7.1092,-7.116,-7.2078,-7.1735,-7.2695,-7.2595,-7.2062,-7.2602,-7.2605,-7.3308,-7.3407,-7.364,-7.4315,-7.4372,-7.4155,-7.4186,-7.4207,-7.4221,0,0,0,0,0,0,0,-6.9775,-6.8838,-7.0598,-7.1127,-7.1187,-7.1864,-7.1886,-7.1908,-7.2596,-7.2599,-7.2601,-7.2604,-7.3899,-7.3948,-7.3997,-7.4253,0,0,-7.4151,-7.4173,0,0,0,0,0,0,0,0,-6.8799,-6.8828,-7.0601,-7.0617,-7.0633,-7.1868,-7.1885,-7.1903,-7.2596,-7.2598,-7.2601,-7.2603,-7.3912,-7.3952,-7.3992,0,0,0,0,0,0,0,0,0,0,0,0,0,0,0,-7.0602,-7.0616,0,-7.187,-7.1885,-7.1899,-7.2597,-7.2598,-7.26,-7.2602,-7.3923,-7.3956,-7.3989,0,0,0,0,0,0,0,0,0,0,0,0,0,0,0,0,0,0,0,0,0,0,0,0,0,0,0,0,0,0,0,0,0,0,0,0,0,0,0,0,0,0,0,0,0,0,0,0,0,0,0,0,0,0,0,0,0,0,0,0,0,0,0,0,0,0,0,0,0]}],[{"header":{"parameterUnit":"kt","parameterCategory":2,"dx":1,"dy":1,"la1":30.253999710083008,"la2":30.299108505249023,"lo1":-89.0895004272461,"lo2":-89.04439544677734,"nx":28,"ny":28,"refTime":"2022-10-28T21:00:00:Z","depth":0,"parameterNumber":2,"parameterNumberName":"V-component_of_WINDS"},"data":[15.0904,15.1001,15.1033,15.1155,15.1204,15.129,15.133,15.1384,15.1434,15.1535,15.1598,15.1633,15.1689,15.1766,15.1831,15.1844,15.1868,15.1881,15.1893,15.1816,15.1807,15.1798,15.1779,15.1886,15.1887,15.1968,15.1969,15.1969,15.0845,15.0896,15.0971,15.1064,15.1127,15.1135,15.1206,15.1256,15.1331,15.1392,15.1456,15.1545,15.1618,15.1669,15.1741,15.1781,15.1785,15.1798,15.1794,15.1801,15.1721,15.1701,15.1793,15.1793,15.1793,15.1793,15.1793,15.1793,15.0746,15.0803,15.0879,15.096,15.1015,15.1075,15.1132,15.1178,15.1246,15.1331,15.135,15.1433,15.1495,15.1595,15.1633,15.1695,15.1684,15.1705,15.171,15.1714,15.1715,15.1591,15.1708,15.1708,15.1708,15.1707,15.1707,0,15.0682,15.0706,15.078,15.0863,15.0923,15.0989,15.1053,15.1088,15.114,15.1194,15.1273,15.1323,15.1418,15.1491,15.1564,15.16,15.1605,15.1609,15.1623,15.1614,15.1598,15.1605,15.1471,15.1604,15.1603,15.1603,15.1602,15.1602,15.0583,15.0646,15.0739,15.0787,15.083,15.0905,15.0954,15.0996,15.1045,15.1126,15.117,15.1247,15.131,15.1426,15.147,15.1538,15.1541,15.1589,15.155,15.1541,15.1538,15.1534,15.1539,15.1594,15.1595,15.1596,15.1596,0,15.0523,15.0575,15.0681,15.0766,15.0789,15.085,15.092,15.0975,15.1011,15.1091,15.1111,15.1166,15.124,15.1278,15.1368,15.1384,15.1476,15.1478,15.1456,15.1457,15.1502,15.1496,15.1646,15.1666,15.1558,15.1559,15.156,0,15.0457,15.0536,15.0608,15.0666,15.0755,15.0796,15.0881,15.0921,15.0978,15.1041,15.1058,15.1116,15.1155,15.1217,15.1241,15.1323,15.134,15.1356,15.1361,15.1354,15.1351,15.1374,15.1368,15.1373,15.1372,15.1372,15.1371,0,15.0356,15.0487,15.0584,15.0622,15.0718,15.0761,15.0801,15.0866,15.0912,15.0977,15.1007,15.1079,15.1117,15.117,15.1201,15.1173,15.1303,15.1271,15.1319,15.1318,15.1342,15.134,15.1467,15.137,15.137,15.137,15.1369,0,15.0309,15.0382,15.0515,15.0595,15.0627,15.0689,15.0766,15.0828,15.0893,15.0915,15.0966,15.0979,15.1057,15.1023,15.1128,15.1084,15.1119,15.1142,15.1146,15.1152,15.1112,15.1174,15.1295,15.1307,15.1161,15.116,15.1158,0,15.0179,15.0327,15.0365,15.0488,15.0561,15.0578,15.0646,15.0705,15.0739,15.0802,15.0837,15.0907,15.089,15.0916,15.0965,15.1002,15.1059,15.0995,15.1076,15.1078,15.1057,15.1169,15.1176,15.1265,15.1137,15.1139,15.1141,0,15.0083,15.0205,15.0224,15.0268,15.0356,15.0416,15.0495,15.0577,15.0617,15.068,15.0744,15.0843,15.0834,15.0877,15.0895,15.0942,15.1021,15.0924,15.0926,15.0937,15.113,15.1136,15.1151,15.1022,15.1024,15.1026,15.1124,0,14.9997,15.0078,15.0134,15.0231,15.0285,15.0364,15.041,15.0459,15.0473,15.0507,15.0602,15.0657,15.0733,15.0761,15.0773,15.0871,15.0859,15.0848,15.0813,15.0888,15.092,15.0934,15.0762,15.0761,15.076,15.076,0,0,14.9858,14.9975,15.0013,15.0094,15.0142,15.0157,15.0237,15.0283,15.0375,15.0405,15.0388,15.0535,15.0579,15.0688,15.0715,15.0746,15.0766,15.0738,15.0853,15.0863,15.0873,15.0907,15.0921,15.0759,15.0758,15.0758,15.0758,0,14.9836,14.9892,14.9974,15.0026,15.0104,15.0138,15.0157,15.0234,15.0259,15.0355,15.036,15.0421,15.0537,15.0582,15.062,15.0728,15.0724,15.0748,15.0792,15.0845,15.0856,15.0866,15.0902,15.0915,15.0756,15.0757,15.0757,0,14.9749,14.981,14.9855,14.9967,15.0017,15.009,15.0069,15.0147,15.0201,15.0205,15.0298,15.0333,15.0397,15.0496,15.0541,15.0526,15.0684,15.0642,15.0647,15.0651,15.0704,15.0718,15.0729,15.0572,15.0572,15.0571,0,0,14.9722,14.9799,14.9875,14.9966,14.9997,15.0048,15.0091,15.011,15.0171,15.0195,15.024,15.0296,15.0363,15.0406,15.0471,15.0574,15.0588,15.0617,15.0626,15.0633,15.0641,15.0696,15.0709,15.0568,15.0568,15.0568,0,0,14.9707,14.9802,14.9807,14.9919,14.9981,15.0057,15.0108,15.0114,15.0178,15.0173,15.0202,15.0218,15.0312,15.0344,15.03,15.0458,15.0424,15.0436,15.0433,15.0445,15.0453,15.0441,15.0279,0,0,0,0,0,14.9709,14.9791,14.9795,14.9821,14.9959,15.0056,15.0073,15.0103,15.0079,15.0119,15.0157,15.0152,15.0327,15.0288,15.031,15.0358,15.0529,15.0536,15.0543,15.0564,15.0576,15.0585,0,0,0,0,0,0,14.9719,14.9751,14.9793,14.9873,14.9904,15.0053,15.0019,15.003,15.0076,15.0074,15.0146,15.0155,15.0178,15.0279,15.0298,15.0343,15.0273,15.0532,15.0538,15.0543,15.0568,15.0577,15.0586,0,0,0,0,0,14.9728,14.9753,14.9968,14.9872,14.9899,14.9958,15.0017,15.0025,15.006,15.0119,15.0128,15.0079,15.0178,15.0196,15.029,15.0333,15.026,15.0267,15.0536,15.054,15.0544,15.0573,0,0,0,0,0,0,14.9734,14.9759,14.9974,14.9983,14.9844,14.995,14.9969,15.0021,15.0103,15.0113,15.0053,15.0051,15.018,15.0193,15.0207,15.0329,15.0249,15.0256,15.0261,15.0539,15.0543,15.0546,0,0,0,0,0,0,14.9746,14.9767,14.9979,14.9942,14.9947,14.9943,14.9959,15.0042,15.0103,15.0032,15.0033,15.0051,15.0157,15.0192,15.0202,15.0331,15.0241,15.0248,15.0253,15.0256,15.0542,15.0545,0,0,0,0,0,0,14.9755,14.9773,14.9939,14.9943,14.9948,15.0052,15.0016,15.0154,15.0078,15.0028,15.0071,15.0068,15.0155,15.0167,15.0199,15.0323,15.0329,15.0241,15.0246,15.0249,15.0251,0,0,0,0,0,0,0,14.9763,14.9635,14.9921,14.9945,14.9948,15.0068,15.007,15.0073,15.0077,15.0075,15.0072,15.007,15.0201,15.0209,15.0217,15.0317,0,0,15.024,15.0244,0,0,0,0,0,0,0,0,14.9628,14.9633,14.9921,14.9923,14.9925,15.0068,15.007,15.0072,15.0077,15.0075,15.0073,15.0071,15.0204,15.021,15.0216,0,0,0,0,0,0,0,0,0,0,0,0,0,0,0,14.9921,14.9923,0,15.0068,15.007,15.0072,15.0076,15.0075,15.0073,15.0071,15.0205,15.021,15.0215,0,0,0,0,0,0,0,0,0,0,0,0,0,0,0,0,0,0,0,0,0,0,0,0,0,0,0,0,0,0,0,0,0,0,0,0,0,0,0,0,0,0,0,0,0,0,0,0,0,0,0,0,0,0,0,0,0,0,0,0,0,0,0,0,0,0,0,0,0]}]]]